Regional Weather Roundup
Issued by NWS

Home | Current Version | Previous Version | Text Only | Print | Product List | Glossary Off
Versions: 1 2 3 4 5 6 7 8 9 10 11 12 13 14 15 16 17 18 19 20 21 22 23 24 25 26

000
ASUS45 KCYS 271210
RWRWY

WYOMING REGIONAL WEATHER ROUNDUP
NATIONAL WEATHER SERVICE CHEYENNE WY
600 AM MDT THU JUL 27 2017

NOTE:  "FAIR" INDICATES FEW OR NO CLOUDS BELOW 12,000 FEET
WITH NO SIGNIFICANT WEATHER AND/OR OBSTRUCTIONS TO VISIBILITY.

WYZ001-271300-
YELLOWSTONE NATIONAL PARK

CITY           SKY/WX    TMP DP  RH WIND       PRES   REMARKS
LK YELLOWSTONE   N/A     44  44 100 CALM      30.40S
6HR MIN TEMP:  44; 6HR MAX TEMP:  55;

W YELLOWSTONE  NOT AVBL

$$
WYZ002>013-054>058-071-098>099-271300-
NORTHERN WYOMING

CITY           SKY/WX    TMP DP  RH WIND       PRES   REMARKS
JACKSON        FAIR      46  45  93 NE3       30.33R
CODY           FAIR      62  52  69 CALM      30.17S
GREYBULL       FAIR      66  54  65 W7        30.09R
6HR MIN TEMP:  66; 6HR MAX TEMP:  74;

WORLAND        FAIR      61  55  81 S6        30.11S
6HR MIN TEMP:  59; 6HR MAX TEMP:  73;

SHERIDAN       FAIR      59  53  80 CALM      30.09S
6HR MIN TEMP:  56; 6HR MAX TEMP:  68;

BUFFALO        FAIR      59  55  87 CALM      30.15S
6HR MIN TEMP:  58; 6HR MAX TEMP:  72;

GILLETTE       FAIR      67  58  72 S16       30.12F
6HR MIN TEMP:  65; 6HR MAX TEMP:  71;

HULETT         FAIR      70  59  68 SE8       30.16S
NEWCASTLE      FAIR      68  57  68 E13G23    30.18S

$$
WYZ014>020-022>026-101>103-271300-
CENTRAL WYOMING

CITY           SKY/WX    TMP DP  RH WIND       PRES   REMARKS
BIG PINEY      FAIR      48  45  89 CALM      30.35S
6HR MIN TEMP:  47; 6HR MAX TEMP:  58;

PINEDALE       FAIR      46  45  93 W3        30.36R
DUBOIS         FAIR      50  43  76 NW9       30.33R
LANDER         FAIR      57  51  80 S3        30.21R
6HR MIN TEMP:  55; 6HR MAX TEMP:  66;

RIVERTON       FAIR      57  54  89 W8        30.21R
6HR MIN TEMP:  57; 6HR MAX TEMP:  66;

CASPER         FAIR      56  54  93 NE3       30.20S
6HR MIN TEMP:  55; 6HR MAX TEMP:  64;

DOUGLAS        FAIR      61  58  90 SE6       30.20S
6HR MIN TEMP:  61; 6HR MAX TEMP:  67;


$$
WYZ021-027>030-104>119-271300-
SOUTHERN WYOMING

CITY           SKY/WX    TMP DP  RH WIND       PRES   REMARKS
EVANSTON       FAIR      54  50  86 S3        30.35R
6HR MIN TEMP:  52; 6HR MAX TEMP:  64; 6HR PCP: TRACE;

KEMMERER         N/A     52  48  87 NW9       30.36S
FORT BRIDGER   FAIR      56  51  84 W9        30.37R
ROCK SPRINGS   MOCLDY    58  51  78 SW7       30.32R
6HR MIN TEMP:  57; 6HR MAX TEMP:  62; 6HR PCP: TRACE;

RAWLINS        MOCLDY    55  53  93 CALM      30.33R
6HR MIN TEMP:  53; 6HR MAX TEMP:  60;

LARAMIE        FAIR      52  51  97 S6        30.33R
6HR MIN TEMP:  52; 6HR MAX TEMP:  57;

CHEYENNE       FAIR      59  56  89 CALM      30.28R
6HR MIN TEMP:  59; 6HR MAX TEMP:  66;

TORRINGTON     FAIR      65  64  97 SE9       30.17S
6HR MIN TEMP:  65; 6HR MAX TEMP:  68;

PINE BLUFFS    PTSUNNY   61  61 100 SE6       30.25R FOG

$$




USA.gov is the U.S. government's official web portal to all federal, state and local government web resources and services.